Portada
METAR-TAF:

METAR-TAF

Aeroports :

Fairfield Municipal Airport

Fairfield, Iowa, Estats Units d'Amèrica

latitud: 41-03N, longitud: 091-59W, altitud: 244 m

Observació

L'informe es va fer fa 23 minuts, a les 03:55 UTC
Vent 5 kt del Nord-Oest
Temperatura 21°C
Humitat 94%
Pressió 1017 hPa
Visibilitat: 16.1 km
Cel clar

METAR: KFFL 180355Z AUTO 32005KT 10SM CLR 21/20 A3002 RMK AO2 PWINO

Hora: 23:18 (04:18 UTC)


TAF: manca

Observacions i pronòstics meteorològics de més de 4000 aeroports (METAR i TAF).

Les estacions disponibles són els punts grocs i vermells al mapa.

Posi el ratolí al punt desitjat per veure el nom de l'estació.

Feu clic per veure les observacions i els pronòstics meteorològics.

Per canviar el mapa: feu clic els botons verds amb una creu de color negre per apropar; al botó verd amb un guió per allunyar la imatge; o en les fletxes verdes per a mapes adjacents.


METAR-TAF: